Location: Asheville, NC
(35.6000°N, 82.5500°W)
Time: 09:37:48
(UTC-04:00)

Vanguard 3 - Pass Details

Date: 16 March 2018
Orbit: 508 x 3264 km, 33.3° (Epoch: 24 June)

Event Time Altitude Azimuth Distance (km) Brightness Sun altitude
Rises 12:43:52 0° 276° (W) 7,108 11.8 50.7°
Reaches altitude 10° 12:49:00 10° 275° (W) 5,888 11.5 51.1°
Maximum altitude 13:06:06 74° 195° (SSW) 2,197 10.8 52.1°
Drops below altitude 10° 13:15:52 10° 112° (ESE) 3,571 10.8 52.5°
Sets 13:18:14 0° 110° (ESE) 4,263 11.1 52.5°
